Year,Month,Day,Hour,Minute,Value (Times are PST for barometer in hPa)
2014,08,02,00,00,1013.24
2014,08,02,00,01,1013.24
2014,08,02,00,02,1013.28
2014,08,02,00,03,1013.24
2014,08,02,00,04,1013.28
2014,08,02,00,05,1013.24
2014,08,02,00,06,1013.24
2014,08,02,00,07,1013.24
2014,08,02,00,08,1013.24
2014,08,02,00,09,1013.17
2014,08,02,00,10,1013.21
2014,08,02,00,11,1013.21
2014,08,02,00,12,1013.17
2014,08,02,00,13,1013.21
2014,08,02,00,14,1013.28
2014,08,02,00,15,1013.21
2014,08,02,00,16,1013.28
2014,08,02,00,17,1013.24
2014,08,02,00,18,1013.28
2014,08,02,00,19,1013.21
2014,08,02,00,20,1013.24
2014,08,02,00,21,1013.21
2014,08,02,00,22,1013.21
2014,08,02,00,23,1013.17
2014,08,02,00,24,1013.17
2014,08,02,00,25,1013.17
2014,08,02,00,26,1013.21
2014,08,02,00,27,1013.21
2014,08,02,00,28,1013.21
2014,08,02,00,29,1013.21
2014,08,02,00,30,1013.21
2014,08,02,00,31,1013.21
2014,08,02,00,32,1013.21
2014,08,02,00,33,1013.17
2014,08,02,00,34,1013.24
2014,08,02,00,35,1013.21
2014,08,02,00,36,1013.24
2014,08,02,00,37,1013.24
2014,08,02,00,38,1013.24
2014,08,02,00,39,1013.28
2014,08,02,00,40,1013.28
2014,08,02,00,41,1013.21
2014,08,02,00,42,1013.24
2014,08,02,00,43,1013.21
2014,08,02,00,44,1013.21
2014,08,02,00,45,1013.21
2014,08,02,00,46,1013.17
2014,08,02,00,47,1013.21
2014,08,02,00,48,1013.21
2014,08,02,00,49,1013.21
2014,08,02,00,50,1013.28
2014,08,02,00,51,1013.24
2014,08,02,00,52,1013.31
2014,08,02,00,53,1013.31
2014,08,02,00,54,1013.31
2014,08,02,00,55,1013.34
2014,08,02,00,56,1013.31
2014,08,02,00,57,1013.31
2014,08,02,00,58,1013.24
2014,08,02,00,59,1013.28
2014,08,02,01,00,1013.24
2014,08,02,01,01,1013.24
2014,08,02,01,02,1013.28
2014,08,02,01,03,1013.28
2014,08,02,01,04,1013.31
2014,08,02,01,05,1013.28
2014,08,02,01,06,1013.31
2014,08,02,01,07,1013.28
2014,08,02,01,08,1013.28
2014,08,02,01,09,1013.28
2014,08,02,01,10,1013.28
2014,08,02,01,11,1013.28
2014,08,02,01,12,1013.31
2014,08,02,01,13,1013.34
2014,08,02,01,14,1013.34
2014,08,02,01,15,1013.31
2014,08,02,01,16,1013.31
2014,08,02,01,17,1013.28
2014,08,02,01,18,1013.31
2014,08,02,01,19,1013.28
2014,08,02,01,20,1013.28
2014,08,02,01,21,1013.28
2014,08,02,01,22,1013.28
2014,08,02,01,23,1013.31
2014,08,02,01,24,1013.31
2014,08,02,01,25,1013.28
2014,08,02,01,26,1013.31
2014,08,02,01,27,1013.31
2014,08,02,01,28,1013.38
2014,08,02,01,29,1013.38
2014,08,02,01,30,1013.34
2014,08,02,01,31,1013.34
2014,08,02,01,32,1013.38
2014,08,02,01,33,1013.38
2014,08,02,01,34,1013.38
2014,08,02,01,35,1013.38
2014,08,02,01,36,1013.34
2014,08,02,01,37,1013.38
2014,08,02,01,38,1013.41
2014,08,02,01,39,1013.41
2014,08,02,01,40,1013.41
2014,08,02,01,41,1013.41
2014,08,02,01,42,1013.44
2014,08,02,01,43,1013.44
2014,08,02,01,44,1013.41
2014,08,02,01,45,1013.41
2014,08,02,01,46,1013.38
2014,08,02,01,47,1013.41
2014,08,02,01,48,1013.38
2014,08,02,01,49,1013.34
2014,08,02,01,50,1013.34
2014,08,02,01,51,1013.34
2014,08,02,01,52,1013.38
2014,08,02,01,53,1013.38
2014,08,02,01,54,1013.38
2014,08,02,01,55,1013.41
2014,08,02,01,56,1013.38
2014,08,02,01,57,1013.41
2014,08,02,01,58,1013.38
2014,08,02,01,59,1013.41
2014,08,02,02,00,1013.38
2014,08,02,02,01,1013.41
2014,08,02,02,02,1013.41
2014,08,02,02,03,1013.41
2014,08,02,02,04,1013.38
2014,08,02,02,05,1013.38
2014,08,02,02,06,1013.34
2014,08,02,02,07,1013.31
2014,08,02,02,08,1013.34
2014,08,02,02,09,1013.34
2014,08,02,02,10,1013.41
2014,08,02,02,11,1013.38
2014,08,02,02,12,1013.34
2014,08,02,02,13,1013.41
2014,08,02,02,14,1013.41
2014,08,02,02,15,1013.41
2014,08,02,02,16,1013.44
2014,08,02,02,17,1013.44
2014,08,02,02,18,1013.44
2014,08,02,02,19,1013.44
2014,08,02,02,20,1013.48
2014,08,02,02,21,1013.44
2014,08,02,02,22,1013.51
2014,08,02,02,23,1013.48
2014,08,02,02,24,1013.48
2014,08,02,02,25,1013.48
2014,08,02,02,26,1013.44
2014,08,02,02,27,1013.48
2014,08,02,02,28,1013.48
2014,08,02,02,29,1013.48
2014,08,02,02,30,1013.48
2014,08,02,02,31,1013.44
2014,08,02,02,32,1013.44
2014,08,02,02,33,1013.48
2014,08,02,02,34,1013.44
2014,08,02,02,35,1013.48
2014,08,02,02,36,1013.48
2014,08,02,02,37,1013.55
2014,08,02,02,38,1013.51
2014,08,02,02,39,1013.55
2014,08,02,02,40,1013.58
2014,08,02,02,41,1013.58
2014,08,02,02,42,1013.61
2014,08,02,02,43,1013.61
2014,08,02,02,44,1013.65
2014,08,02,02,45,1013.65
2014,08,02,02,46,1013.65
2014,08,02,02,47,1013.65
2014,08,02,02,48,1013.65
2014,08,02,02,49,1013.68
2014,08,02,02,50,1013.61
2014,08,02,02,51,1013.68
2014,08,02,02,52,1013.68
2014,08,02,02,53,1013.75
2014,08,02,02,54,1013.75
2014,08,02,02,55,1013.75
2014,08,02,02,56,1013.78
2014,08,02,02,57,1013.82
2014,08,02,02,58,1013.78
2014,08,02,02,59,1013.78
2014,08,02,03,00,1013.85
2014,08,02,03,01,1013.85
2014,08,02,03,02,1013.85
2014,08,02,03,03,1013.85
2014,08,02,03,04,1013.85
2014,08,02,03,05,1013.89
2014,08,02,03,06,1013.89
2014,08,02,03,07,1013.89
2014,08,02,03,08,1013.92
2014,08,02,03,09,1013.95
2014,08,02,03,10,1013.95
2014,08,02,03,11,1013.95
2014,08,02,03,12,1014.02
2014,08,02,03,13,1014.02
2014,08,02,03,14,1013.99
2014,08,02,03,15,1013.99
2014,08,02,03,16,1014.05
2014,08,02,03,17,1014.05
2014,08,02,03,18,1014.05
2014,08,02,03,19,1014.09
2014,08,02,03,20,1014.09
2014,08,02,03,21,1014.09
2014,08,02,03,22,1014.12
2014,08,02,03,23,1014.12
2014,08,02,03,24,1014.12
2014,08,02,03,25,1014.12
2014,08,02,03,26,1014.12
2014,08,02,03,27,1014.12
2014,08,02,03,28,1014.12
2014,08,02,03,29,1014.19
2014,08,02,03,30,1014.16
2014,08,02,03,31,1014.16
2014,08,02,03,32,1014.09
2014,08,02,03,33,1014.09
2014,08,02,03,34,1014.12
2014,08,02,03,35,1014.09
2014,08,02,03,36,1014.09
2014,08,02,03,37,1014.05
2014,08,02,03,38,1014.09
2014,08,02,03,39,1014.09
2014,08,02,03,40,1014.09
2014,08,02,03,41,1014.12
2014,08,02,03,42,1014.16
2014,08,02,03,43,1014.09
2014,08,02,03,44,1014.12
2014,08,02,03,45,1014.16
2014,08,02,03,46,1014.12
2014,08,02,03,47,1014.16
2014,08,02,03,48,1014.16
2014,08,02,03,49,1014.16
2014,08,02,03,50,1014.16
2014,08,02,03,51,1014.22
2014,08,02,03,52,1014.19
2014,08,02,03,53,1014.19
2014,08,02,03,54,1014.16
2014,08,02,03,55,1014.19
2014,08,02,03,56,1014.16
2014,08,02,03,57,1014.16
2014,08,02,03,58,1014.16
2014,08,02,03,59,1014.19
2014,08,02,04,00,1014.19
2014,08,02,04,01,1014.16
2014,08,02,04,02,1014.16
2014,08,02,04,03,1014.19
2014,08,02,04,04,1014.19
2014,08,02,04,05,1014.26
2014,08,02,04,06,1014.26
2014,08,02,04,07,1014.22
2014,08,02,04,08,1014.26
2014,08,02,04,09,1014.29
2014,08,02,04,10,1014.26
2014,08,02,04,11,1014.26
2014,08,02,04,12,1014.29
2014,08,02,04,13,1014.29
2014,08,02,04,14,1014.29
2014,08,02,04,15,1014.29
2014,08,02,04,16,1014.26
2014,08,02,04,17,1014.29
2014,08,02,04,18,1014.26
2014,08,02,04,19,1014.26
2014,08,02,04,20,1014.26
2014,08,02,04,21,1014.29
2014,08,02,04,22,1014.22
2014,08,02,04,23,1014.26
2014,08,02,04,24,1014.19
2014,08,02,04,25,1014.19
2014,08,02,04,26,1014.19
2014,08,02,04,27,1014.16
2014,08,02,04,28,1014.16
2014,08,02,04,29,1014.16
2014,08,02,04,30,1014.16
2014,08,02,04,31,1014.16
2014,08,02,04,32,1014.19
2014,08,02,04,33,1014.22
2014,08,02,04,34,1014.22
2014,08,02,04,35,1014.26
2014,08,02,04,36,1014.26
2014,08,02,04,37,1014.22
2014,08,02,04,38,1014.26
2014,08,02,04,39,1014.19
2014,08,02,04,40,1014.22
2014,08,02,04,41,1014.22
2014,08,02,04,42,1014.22
2014,08,02,04,43,1014.19
2014,08,02,04,44,1014.19
2014,08,02,04,45,1014.19
2014,08,02,04,46,1014.16
2014,08,02,04,47,1014.16
2014,08,02,04,48,1014.16
2014,08,02,04,49,1014.12
2014,08,02,04,50,1014.16
2014,08,02,04,51,1014.19
2014,08,02,04,52,1014.16
2014,08,02,04,53,1014.19
2014,08,02,04,54,1014.19
2014,08,02,04,55,1014.12
2014,08,02,04,56,1014.19
2014,08,02,04,57,1014.12
2014,08,02,04,58,1014.19
2014,08,02,04,59,1014.19
2014,08,02,05,00,1014.19
2014,08,02,05,01,1014.26
2014,08,02,05,02,1014.26
2014,08,02,05,03,1014.26
2014,08,02,05,04,1014.26
2014,08,02,05,05,1014.22
2014,08,02,05,06,1014.26
2014,08,02,05,07,1014.29
2014,08,02,05,08,1014.29
2014,08,02,05,09,1014.29
2014,08,02,05,10,1014.29
2014,08,02,05,11,1014.26
2014,08,02,05,12,1014.26
2014,08,02,05,13,1014.26
2014,08,02,05,14,1014.26
2014,08,02,05,15,1014.22
2014,08,02,05,16,1014.22
2014,08,02,05,17,1014.22
2014,08,02,05,18,1014.22
2014,08,02,05,19,1014.22
2014,08,02,05,20,1014.29
2014,08,02,05,21,1014.26
2014,08,02,05,22,1014.29
2014,08,02,05,23,1014.29
2014,08,02,05,24,1014.33
2014,08,02,05,25,1014.29
2014,08,02,05,26,1014.29
2014,08,02,05,27,1014.29
2014,08,02,05,28,1014.33
2014,08,02,05,29,1014.36
2014,08,02,05,30,1014.33
2014,08,02,05,31,1014.29
2014,08,02,05,32,1014.26
2014,08,02,05,33,1014.22
2014,08,02,05,34,1014.22
2014,08,02,05,35,1014.19
2014,08,02,05,36,1014.16
2014,08,02,05,37,1014.12
2014,08,02,05,38,1014.12
2014,08,02,05,39,1014.16
2014,08,02,05,40,1014.12
2014,08,02,05,41,1014.16
2014,08,02,05,42,1014.16
2014,08,02,05,43,1014.16
2014,08,02,05,44,1014.19
2014,08,02,05,45,1014.22
2014,08,02,05,46,1014.19
2014,08,02,05,47,1014.26
2014,08,02,05,48,1014.26
2014,08,02,05,49,1014.22
2014,08,02,05,50,1014.22
2014,08,02,05,51,1014.26
2014,08,02,05,52,1014.26
2014,08,02,05,53,1014.26
2014,08,02,05,54,1014.19
2014,08,02,05,55,1014.22
2014,08,02,05,56,1014.22
2014,08,02,05,57,1014.26
2014,08,02,05,58,1014.26
2014,08,02,05,59,1014.26
2014,08,02,06,00,1014.29
2014,08,02,06,01,1014.33
2014,08,02,06,02,1014.33
2014,08,02,06,03,1014.43
2014,08,02,06,04,1014.39
2014,08,02,06,05,1014.43
2014,08,02,06,06,1014.46
2014,08,02,06,07,1014.43
2014,08,02,06,08,1014.43
2014,08,02,06,09,1014.43
2014,08,02,06,10,1014.43
2014,08,02,06,11,1014.39
2014,08,02,06,12,1014.36
2014,08,02,06,13,1014.43
2014,08,02,06,14,1014.39
2014,08,02,06,15,1014.39
2014,08,02,06,16,1014.39
2014,08,02,06,17,1014.43
2014,08,02,06,18,1014.46
2014,08,02,06,19,1014.46
2014,08,02,06,20,1014.49
2014,08,02,06,21,1014.53
2014,08,02,06,22,1014.49
2014,08,02,06,23,1014.53
2014,08,02,06,24,1014.49
2014,08,02,06,25,1014.53
2014,08,02,06,26,1014.56
2014,08,02,06,27,1014.60
2014,08,02,06,28,1014.56
2014,08,02,06,29,1014.56
2014,08,02,06,30,1014.56
2014,08,02,06,31,1014.60
2014,08,02,06,32,1014.60
2014,08,02,06,33,1014.60
2014,08,02,06,34,1014.60
2014,08,02,06,35,1014.63
2014,08,02,06,36,1014.63
2014,08,02,06,37,1014.63
2014,08,02,06,38,1014.63
2014,08,02,06,39,1014.63
2014,08,02,06,40,1014.63
2014,08,02,06,41,1014.63
2014,08,02,06,42,1014.66
2014,08,02,06,43,1014.66
2014,08,02,06,44,1014.66
2014,08,02,06,45,1014.66
2014,08,02,06,46,1014.70
2014,08,02,06,47,1014.73
2014,08,02,06,48,1014.73
2014,08,02,06,49,1014.73
2014,08,02,06,50,1014.77
2014,08,02,06,51,1014.80
2014,08,02,06,52,1014.80
2014,08,02,06,53,1014.80
2014,08,02,06,54,1014.87
2014,08,02,06,55,1014.83
2014,08,02,06,56,1014.87
2014,08,02,06,57,1014.90
2014,08,02,06,58,1014.93
2014,08,02,06,59,1014.93
2014,08,02,07,00,1014.93
2014,08,02,07,01,1014.93
2014,08,02,07,02,1014.90
2014,08,02,07,03,1014.93
2014,08,02,07,04,1014.93
2014,08,02,07,05,1014.93
2014,08,02,07,06,1014.93
2014,08,02,07,07,1015.00
2014,08,02,07,08,1014.97
2014,08,02,07,09,1015.00
2014,08,02,07,10,1015.00
2014,08,02,07,11,1015.00
2014,08,02,07,12,1014.93
2014,08,02,07,13,1014.93
2014,08,02,07,14,1014.97
2014,08,02,07,15,1015.00
2014,08,02,07,16,1014.97
2014,08,02,07,17,1014.97
2014,08,02,07,18,1015.00
2014,08,02,07,19,1015.00
2014,08,02,07,20,1015.00
2014,08,02,07,21,1015.00
2014,08,02,07,22,1015.04
2014,08,02,07,23,1015.00
2014,08,02,07,24,1015.00
2014,08,02,07,25,1015.04
2014,08,02,07,26,1014.97
2014,08,02,07,27,1014.97
2014,08,02,07,28,1014.97
2014,08,02,07,29,1014.97
2014,08,02,07,30,1015.00
2014,08,02,07,31,1015.00
2014,08,02,07,32,1015.00
2014,08,02,07,33,1015.04
2014,08,02,07,34,1015.00
2014,08,02,07,35,1015.00
2014,08,02,07,36,1015.00
2014,08,02,07,37,1015.04
2014,08,02,07,38,1015.07
2014,08,02,07,39,1015.04
2014,08,02,07,40,1015.00
2014,08,02,07,41,1015.04
2014,08,02,07,42,1015.04
2014,08,02,07,43,1014.97
2014,08,02,07,44,1015.04
2014,08,02,07,45,1015.04
2014,08,02,07,46,1015.04
2014,08,02,07,47,1015.04
2014,08,02,07,48,1015.04
2014,08,02,07,49,1015.07
2014,08,02,07,50,1015.07
2014,08,02,07,51,1015.04
2014,08,02,07,52,1015.04
2014,08,02,07,53,1015.04
2014,08,02,07,54,1015.00
2014,08,02,07,55,1015.00
2014,08,02,07,56,1014.97
2014,08,02,07,57,1014.97
2014,08,02,07,58,1015.00
2014,08,02,07,59,1015.00
2014,08,02,08,00,1015.07
2014,08,02,08,01,1015.07
2014,08,02,08,02,1014.87
2014,08,02,08,03,1015.14
2014,08,02,08,04,1015.10
2014,08,02,08,05,1015.14
2014,08,02,08,06,1015.10
2014,08,02,08,07,1015.14
2014,08,02,08,08,1015.14
2014,08,02,08,09,1015.14
2014,08,02,08,10,1015.14
2014,08,02,08,11,1015.14
2014,08,02,08,12,1015.17
2014,08,02,08,13,1015.17
2014,08,02,08,14,1015.14
2014,08,02,08,15,1015.21
2014,08,02,08,16,1015.17
2014,08,02,08,17,1015.14
2014,08,02,08,18,1015.10
2014,08,02,08,19,1015.17
2014,08,02,08,20,1015.08
2014,08,02,08,21,1015.14
2014,08,02,08,22,1015.10
2014,08,02,08,23,1015.20
2014,08,02,08,24,1015.17
2014,08,02,08,25,1015.21
2014,08,02,08,26,1015.21
2014,08,02,08,27,1015.21
2014,08,02,08,28,1015.17
2014,08,02,08,29,1015.14
2014,08,02,08,30,1015.14
2014,08,02,08,31,1015.14
2014,08,02,08,32,1015.17
2014,08,02,08,33,1015.17
2014,08,02,08,34,1015.14
2014,08,02,08,35,1015.14
2014,08,02,08,36,1015.21
2014,08,02,08,37,1015.21
2014,08,02,08,38,1015.24
2014,08,02,08,39,1015.21
2014,08,02,08,40,1015.21
2014,08,02,08,41,1015.21
2014,08,02,08,42,1015.21
2014,08,02,08,43,1015.21
2014,08,02,08,44,1015.21
2014,08,02,08,45,1015.21
2014,08,02,08,46,1015.21
2014,08,02,08,47,1015.21
2014,08,02,08,48,1013.75
2014,08,02,08,49,1013.75
2014,08,02,08,50,1013.75
2014,08,02,08,51,1013.75
2014,08,02,08,52,1013.75
2014,08,02,08,53,1013.75
2014,08,02,08,54,1013.75
2014,08,02,08,55,1013.75
2014,08,02,08,56,1013.75
2014,08,02,08,57,1013.75
2014,08,02,08,58,1013.75
2014,08,02,08,59,1009.42
2014,08,02,09,00,1009.45
2014,08,02,09,01,1009.45
2014,08,02,09,02,1009.45
2014,08,02,09,03,1006.54
2014,08,02,09,04,1006.54
2014,08,02,09,05,1006.54
2014,08,02,09,06,1006.54
2014,08,02,09,07,1014.90
2014,08,02,09,08,1015.34
2014,08,02,09,09,1015.41
2014,08,02,09,10,1015.38
2014,08,02,09,11,1015.41
2014,08,02,09,12,1015.41
2014,08,02,09,13,1015.41
2014,08,02,09,14,1015.41
2014,08,02,09,15,1015.44
2014,08,02,09,16,1015.48
2014,08,02,09,17,1015.41
2014,08,02,09,18,1015.44
2014,08,02,09,19,1015.48
2014,08,02,09,20,1015.48
2014,08,02,09,21,1015.44
2014,08,02,09,22,1015.44
2014,08,02,09,23,1015.44
2014,08,02,09,24,1015.44
2014,08,02,09,25,1015.41
2014,08,02,09,26,1015.41
2014,08,02,09,27,1015.38
2014,08,02,09,28,1015.41
2014,08,02,09,29,1015.34
2014,08,02,09,30,1015.34
2014,08,02,09,31,1015.34
2014,08,02,09,32,1015.34
2014,08,02,09,33,1015.34
2014,08,02,09,34,1015.31
2014,08,02,09,35,1015.31
2014,08,02,09,36,1015.34
2014,08,02,09,37,1015.24
2014,08,02,09,38,1015.31
2014,08,02,09,39,1015.31
2014,08,02,09,40,1015.31
2014,08,02,09,41,1015.31
2014,08,02,09,42,1015.27
2014,08,02,09,43,1015.34
2014,08,02,09,44,1015.31
2014,08,02,09,45,1015.34
2014,08,02,09,46,1015.34
2014,08,02,09,47,1015.31
2014,08,02,09,48,1015.31
2014,08,02,09,49,1015.31
2014,08,02,09,50,1015.31
2014,08,02,09,51,1015.31
2014,08,02,09,52,1015.31
2014,08,02,09,53,1015.24
2014,08,02,09,54,1015.27
2014,08,02,09,55,1015.24
2014,08,02,09,56,1015.24
2014,08,02,09,57,1015.24
2014,08,02,09,58,1015.27
2014,08,02,09,59,1015.27
2014,08,02,10,00,1015.27
2014,08,02,10,01,1015.27
2014,08,02,10,02,1015.27
2014,08,02,10,03,1015.24
2014,08,02,10,04,1015.27
2014,08,02,10,05,1015.31
2014,08,02,10,06,1015.31
2014,08,02,10,07,1015.31
2014,08,02,10,08,1015.31
2014,08,02,10,09,1015.27
2014,08,02,10,10,1015.27
2014,08,02,10,11,1015.10
2014,08,02,10,12,1015.34
2014,08,02,10,13,1015.31
2014,08,02,10,14,1015.31
2014,08,02,10,15,1015.24
2014,08,02,10,16,1015.24
2014,08,02,10,17,1015.27
2014,08,02,10,18,1015.27
2014,08,02,10,19,1015.27
2014,08,02,10,20,1015.21
2014,08,02,10,21,1015.24
2014,08,02,10,22,1015.24
2014,08,02,10,23,1015.27
2014,08,02,10,24,1015.31
2014,08,02,10,25,1015.27
2014,08,02,10,26,1015.27
2014,08,02,10,27,1015.31
2014,08,02,10,28,1015.27
2014,08,02,10,29,1015.31
2014,08,02,10,30,1015.34
2014,08,02,10,31,1015.34
2014,08,02,10,32,1015.31
2014,08,02,10,33,1015.31
2014,08,02,10,34,1015.31
2014,08,02,10,35,1015.31
2014,08,02,10,36,1015.27
2014,08,02,10,37,1015.27
2014,08,02,10,38,1015.24
2014,08,02,10,39,1015.31
2014,08,02,10,40,1015.24
2014,08,02,10,41,1015.24
2014,08,02,10,42,1015.24
2014,08,02,10,43,1015.24
2014,08,02,10,44,1015.24
2014,08,02,10,45,1015.24
2014,08,02,10,46,1015.27
2014,08,02,10,47,1015.24
2014,08,02,10,48,1015.24
2014,08,02,10,49,1015.21
2014,08,02,10,50,1015.24
2014,08,02,10,51,1015.24
2014,08,02,10,52,1015.24
2014,08,02,10,53,1015.24
2014,08,02,10,54,1015.24
2014,08,02,10,55,1015.24
2014,08,02,10,56,1015.24
2014,08,02,10,57,1015.27
2014,08,02,10,58,1015.21
2014,08,02,10,59,1015.21
2014,08,02,11,00,1015.17
2014,08,02,11,01,1015.17
2014,08,02,11,02,1015.14
2014,08,02,11,03,1015.21
2014,08,02,11,04,1015.14
2014,08,02,11,05,1015.14
2014,08,02,11,06,1015.14
2014,08,02,11,07,1015.14
2014,08,02,11,08,1015.07
2014,08,02,11,09,1015.10
2014,08,02,11,10,1015.10
2014,08,02,11,11,1015.10
2014,08,02,11,12,1015.07
2014,08,02,11,13,1015.07
2014,08,02,11,14,1015.07
2014,08,02,11,15,1015.04
2014,08,02,11,16,1015.04
2014,08,02,11,17,1015.04
2014,08,02,11,18,1015.00
2014,08,02,11,19,1015.04
2014,08,02,11,20,1015.07
2014,08,02,11,21,1015.07
2014,08,02,11,22,1015.04
2014,08,02,11,23,1015.04
2014,08,02,11,24,1015.07
2014,08,02,11,25,1015.04
2014,08,02,11,26,1015.04
2014,08,02,11,27,1015.04
2014,08,02,11,28,1015.07
2014,08,02,11,29,1015.07
2014,08,02,11,30,1015.07
2014,08,02,11,31,1015.07
2014,08,02,11,32,1015.10
2014,08,02,11,33,1015.07
2014,08,02,11,34,1015.07
2014,08,02,11,35,1015.04
2014,08,02,11,36,1015.04
2014,08,02,11,37,1015.04
2014,08,02,11,38,1014.97
2014,08,02,11,39,1015.00
2014,08,02,11,40,1015.04
2014,08,02,11,41,1015.00
2014,08,02,11,42,1014.97
2014,08,02,11,43,1014.97
2014,08,02,11,44,1014.93
2014,08,02,11,45,1014.97
2014,08,02,11,46,1014.93
2014,08,02,11,47,1014.93
2014,08,02,11,48,1014.93
2014,08,02,11,49,1014.93
2014,08,02,11,50,1014.90
2014,08,02,11,51,1014.90
2014,08,02,11,52,1014.83
2014,08,02,11,53,1014.90
2014,08,02,11,54,1014.90
2014,08,02,11,55,1014.87
2014,08,02,11,56,1014.87
2014,08,02,11,57,1014.87
2014,08,02,11,58,1014.87
2014,08,02,11,59,1014.83
2014,08,02,12,00,1014.83
2014,08,02,12,01,1014.80
2014,08,02,12,02,1014.83
2014,08,02,12,03,1014.83
2014,08,02,12,04,1014.83
2014,08,02,12,05,1014.83
2014,08,02,12,06,1014.83
2014,08,02,12,07,1014.83
2014,08,02,12,08,1014.80
2014,08,02,12,09,1014.80
2014,08,02,12,10,1014.80
2014,08,02,12,11,1014.73
2014,08,02,12,12,1014.77
2014,08,02,12,13,1014.73
2014,08,02,12,14,1014.70
2014,08,02,12,15,1014.70
2014,08,02,12,16,1014.73
2014,08,02,12,17,1014.66
2014,08,02,12,18,1014.63
2014,08,02,12,19,1014.63
2014,08,02,12,20,1014.63
2014,08,02,12,21,1014.56
2014,08,02,12,22,1014.60
2014,08,02,12,23,1014.60
2014,08,02,12,24,1014.60
2014,08,02,12,25,1014.56
2014,08,02,12,26,1014.56
2014,08,02,12,27,1014.56
2014,08,02,12,28,1014.56
2014,08,02,12,29,1014.60
2014,08,02,12,30,1014.60
2014,08,02,12,31,1014.60
2014,08,02,12,32,1014.56
2014,08,02,12,33,1014.63
2014,08,02,12,34,1014.56
2014,08,02,12,35,1014.60
2014,08,02,12,36,1014.56
2014,08,02,12,37,1014.60
2014,08,02,12,38,1014.56
2014,08,02,12,39,1014.56
2014,08,02,12,40,1014.60
2014,08,02,12,41,1014.56
2014,08,02,12,42,1014.56
2014,08,02,12,43,1014.56
2014,08,02,12,44,1014.56
2014,08,02,12,45,1014.53
2014,08,02,12,46,1014.53
2014,08,02,12,47,1014.53
2014,08,02,12,48,1014.49
2014,08,02,12,49,1014.53
2014,08,02,12,50,1014.53
2014,08,02,12,51,1014.53
2014,08,02,12,52,1014.56
2014,08,02,12,53,1014.56
2014,08,02,12,54,1014.60
2014,08,02,12,55,1014.66
2014,08,02,12,56,1014.63
2014,08,02,12,57,1014.63
2014,08,02,12,58,1014.63
2014,08,02,12,59,1014.63
2014,08,02,13,00,1014.66
2014,08,02,13,01,1014.63
2014,08,02,13,02,1014.63
2014,08,02,13,03,1014.63
2014,08,02,13,04,1014.66
2014,08,02,13,05,1014.63
2014,08,02,13,06,1014.63
2014,08,02,13,07,1014.63
2014,08,02,13,08,1014.63
2014,08,02,13,09,1014.66
2014,08,02,13,10,1014.66
2014,08,02,13,11,1014.66
2014,08,02,13,12,1014.63
2014,08,02,13,13,1014.66
2014,08,02,13,14,1014.66
2014,08,02,13,15,1014.70
2014,08,02,13,16,1014.63
2014,08,02,13,17,1014.63
2014,08,02,13,18,1014.63
2014,08,02,13,19,1014.60
2014,08,02,13,20,1014.60
2014,08,02,13,21,1014.56
2014,08,02,13,22,1014.60
2014,08,02,13,23,1014.56
2014,08,02,13,24,1014.53
2014,08,02,13,25,1014.53
2014,08,02,13,26,1014.56
2014,08,02,13,27,1014.56
2014,08,02,13,28,1014.53
2014,08,02,13,29,1014.53
2014,08,02,13,30,1014.56
2014,08,02,13,31,1014.56
2014,08,02,13,32,1014.53
2014,08,02,13,33,1014.49
2014,08,02,13,34,1014.56
2014,08,02,13,35,1014.56
2014,08,02,13,36,1014.53
2014,08,02,13,37,1014.53
2014,08,02,13,38,1014.53
2014,08,02,13,39,1014.53
2014,08,02,13,40,1014.53
2014,08,02,13,41,1014.53
2014,08,02,13,42,1014.56
2014,08,02,13,43,1014.53
2014,08,02,13,44,1014.53
2014,08,02,13,45,1014.53
2014,08,02,13,46,1014.49
2014,08,02,13,47,1014.56
2014,08,02,13,48,1014.56
2014,08,02,13,49,1014.49
2014,08,02,13,50,1014.53
2014,08,02,13,51,1014.49
2014,08,02,13,52,1014.49
2014,08,02,13,53,1014.49
2014,08,02,13,54,1014.53
2014,08,02,13,55,1014.53
2014,08,02,13,56,1014.49
2014,08,02,13,57,1014.53
2014,08,02,13,58,1014.53
2014,08,02,13,59,1014.49
2014,08,02,14,00,1014.49
2014,08,02,14,01,1014.49
2014,08,02,14,02,1014.46
2014,08,02,14,03,1014.49
2014,08,02,14,04,1014.49
2014,08,02,14,05,1014.49
2014,08,02,14,06,1014.43
2014,08,02,14,07,1014.39
2014,08,02,14,08,1014.39
2014,08,02,14,09,1014.39
2014,08,02,14,10,1014.39
2014,08,02,14,11,1014.39
2014,08,02,14,12,1014.43
2014,08,02,14,13,1014.39
2014,08,02,14,14,1014.39
2014,08,02,14,15,1014.36
2014,08,02,14,16,1014.36
2014,08,02,14,17,1014.36
2014,08,02,14,18,1014.36
2014,08,02,14,19,1014.39
2014,08,02,14,20,1014.39
2014,08,02,14,21,1014.36
2014,08,02,14,22,1014.39
2014,08,02,14,23,1014.39
2014,08,02,14,24,1014.43
2014,08,02,14,25,1014.46
2014,08,02,14,26,1014.43
2014,08,02,14,27,1014.43
2014,08,02,14,28,1014.43
2014,08,02,14,29,1014.39
2014,08,02,14,30,1014.43
2014,08,02,14,31,1014.39
2014,08,02,14,32,1014.39
2014,08,02,14,33,1014.39
2014,08,02,14,34,1014.33
2014,08,02,14,35,1014.36
2014,08,02,14,36,1014.39
2014,08,02,14,37,1014.43
2014,08,02,14,38,1014.36
2014,08,02,14,39,1014.36
2014,08,02,14,40,1014.43
2014,08,02,14,41,1014.34
2014,08,02,14,42,1014.36
2014,08,02,14,43,1014.39
2014,08,02,14,44,1014.36
2014,08,02,14,45,1014.39
2014,08,02,14,46,1014.39
2014,08,02,14,47,1014.36
2014,08,02,14,48,1014.39
2014,08,02,14,49,1014.39
2014,08,02,14,50,1014.39
2014,08,02,14,51,1014.39
2014,08,02,14,52,1014.39
2014,08,02,14,53,1014.43
2014,08,02,14,54,1014.39
2014,08,02,14,55,1014.39
2014,08,02,14,56,1014.39
2014,08,02,14,57,1014.39
2014,08,02,14,58,1014.39
2014,08,02,14,59,1014.36
2014,08,02,15,00,1014.33
2014,08,02,15,01,1014.36
2014,08,02,15,02,1014.36
2014,08,02,15,03,1014.43
2014,08,02,15,04,1014.43
2014,08,02,15,05,1014.39
2014,08,02,15,06,1014.36
2014,08,02,15,07,1014.39
2014,08,02,15,08,1014.39
2014,08,02,15,09,1014.36
2014,08,02,15,10,1014.36
2014,08,02,15,11,1014.39
2014,08,02,15,12,1014.43
2014,08,02,15,13,1014.43
2014,08,02,15,14,1014.39
2014,08,02,15,15,1014.39
2014,08,02,15,16,1014.39
2014,08,02,15,17,1014.39
2014,08,02,15,18,1014.43
2014,08,02,15,19,1014.36
2014,08,02,15,20,1014.39
2014,08,02,15,21,1014.33
2014,08,02,15,22,1014.39
2014,08,02,15,23,1014.36
2014,08,02,15,24,1014.36
2014,08,02,15,25,1014.36
2014,08,02,15,26,1014.29
2014,08,02,15,27,1014.29
2014,08,02,15,28,1014.29
2014,08,02,15,29,1014.29
2014,08,02,15,30,1014.29
2014,08,02,15,31,1014.29
2014,08,02,15,32,1014.29
2014,08,02,15,33,1014.29
2014,08,02,15,34,1014.29
2014,08,02,15,35,1014.29
2014,08,02,15,36,1014.29
2014,08,02,15,37,1014.29
2014,08,02,15,38,1014.26
2014,08,02,15,39,1014.22
2014,08,02,15,40,1014.26
2014,08,02,15,41,1014.26
2014,08,02,15,42,1014.19
2014,08,02,15,43,1014.19
2014,08,02,15,44,1014.19
2014,08,02,15,45,1014.16
2014,08,02,15,46,1014.16
2014,08,02,15,47,1014.12
2014,08,02,15,48,1014.12
2014,08,02,15,49,1014.09
2014,08,02,15,50,1014.09
2014,08,02,15,51,1014.05
2014,08,02,15,52,1014.02
2014,08,02,15,53,1013.99
2014,08,02,15,54,1014.02
2014,08,02,15,55,1013.79
2014,08,02,15,56,1013.91